Location: Gleizolles
(44.4833°N, 6.7667°E)
Time: 16:26:01
(UTC+00:00)

Tiros 1 - Pass Details

Date: 01 July 2024
Orbit: 624 x 656 km, 48.4° (Epoch: 13 July)

Event Time Altitude Azimuth Distance (km) Brightness Sun altitude
Rises 19:51:26 0° 228° (SW) 2,898 10.6 -5.1°
Reaches altitude 10° 19:53:48 10° 223° (SW) 1,991 9.7 -5.4°
Maximum altitude 19:58:13 50° 148° (SSE) 792 7.3 -6.0°
Drops below altitude 10° 20:02:39 10° 73° (ENE) 1,996 9.4 -6.6°
Sets 20:05:01 0° 68° (ENE) 2,906 10.2 -7.0°
